Location: Cortada de Papelón
(10.0378°N, 66.9528°W)
Time: 09:47:47
(UTC+00:00)

Cosmos 1331 Rocket - Pass Details

Date: 13 June 2024
Orbit: 748 x 774 km, 74.0° (Epoch: 19 July)

Event Time Altitude Azimuth Distance (km) Brightness Sun altitude
Rises 23:01:19 0° 342° (NNW) 3,185 7.9 -3.5°
Reaches altitude 10° 23:03:41 10° 339° (NNW) 2,259 7.2 -4.1°
Maximum altitude 23:08:44 65° 258° (WSW) 821 4.5 -5.2°
Drops below altitude 10° 23:13:48 10° 177° (S) 2,260 6.2 -6.3°
Sets 23:16:11 0° 174° (S) 3,185 6.9 -6.9°
